EWG79E EDDS-LGTS

Flight info

Callsign EWG79E
Flight time N/A
Altitude 38000
Route ABTAL4H ABTAL L173 RIXED Y161 MAH L173 OTT M867 RADIZ DCT LUPIX DCT KOTOR DCT NAVSU DCT GACMO DCT NIK DCT ENFAR DCT TALAS N130 ALIKO
Aircraft A21N/M-SDE2E3FGHIJ1RWXY/LB1

Departure

Time N/A
Airport Stuttgart Airport (EDDS)

Arrival

Time 2026-05-06 13:25
Airport Thessaloniki Macedonia International Airport (LGTS)
Time Latitude Longitude Altitude Speed Heading
2026-05-06 13:25 40.51154 22.97536 19 ft 15 kts 346°
2026-05-06 13:25 40.51268 22.97499 18 ft 18 kts 347°
2026-05-06 13:25 40.51392 22.97460 16 ft 18 kts 348°
2026-05-06 13:26 40.51521 22.97419 15 ft 19 kts 346°
2026-05-06 13:26 40.51651 22.97377 14 ft 19 kts 346°
2026-05-06 13:26 40.51785 22.97334 12 ft 20 kts 346°
2026-05-06 13:26 40.51923 22.97290 12 ft 20 kts 346°
2026-05-06 13:27 40.52044 22.97251 11 ft 15 kts 346°
2026-05-06 13:27 40.52097 22.97318 11 ft 13 kts 96°
2026-05-06 13:27 40.52078 22.97426 12 ft 11 kts 105°
2026-05-06 13:27 40.52057 22.97540 13 ft 14 kts 104°
2026-05-06 13:28 40.52032 22.97672 14 ft 14 kts 104°
2026-05-06 13:28 40.52077 22.97736 14 ft 12 kts 329°
2026-05-06 13:28 40.52148 22.97658 13 ft 13 kts 323°
2026-05-06 13:28 40.52224 22.97579 13 ft 14 kts 315°
2026-05-06 13:29 40.52288 22.97495 12 ft 11 kts 314°
2026-05-06 13:29 40.52344 22.97423 11 ft 10 kts 315°
2026-05-06 13:29 40.52393 22.97357 11 ft 8 kts 315°
2026-05-06 13:29 40.52434 22.97362 11 ft 5 kts 38°
2026-05-06 13:30 40.52451 22.97380 11 ft 1 kts 45°
2026-05-06 13:30 40.52455 22.97386 11 ft 0 kts 45°